Weather History for KLWM - February, 2014

Change the Weather History Date:

Sunday, February 9, 2014

  Actual Average Record
Temperature  
Mean Temperature 24 °F -  
Max Temperature 30 °F 35 °F 55 °F (1949)
Min Temperature 19 °F 15 °F -19 °F (1934)
Degree Days  
Heating Degree Days 40    
Moisture  
Dew Point 15 °F    
Average Humidity 69    
Maximum Humidity 88    
Minimum Humidity 39    
Precipitation  
Precipitation 0.02 in - - ()
Sea Level Pressure  
Sea Level Pressure 30.06 in    
Wind  
Wind Speed 5 mph (NNE)    
Max Wind Speed 10 mph    
Max Gust Speed -    
Visibility 5 miles    
Events Snow    
Averages and records for this station are not official NWS values.
T = Trace of Precipitation, MM = Missing Value Source: NWS Daily Summary

Daily Weather History Graph

Daily Weather History Graph

Search for Another Location

Airport or City:

Trip Planner

Search our weather history database for the weather conditions in past years. The results will help you decide how hot, cold, wet, or windy it might be!

Date:

Astronomy

Feb. 09, 2014 Rise Set
Actual Time 6:49 AM EST 5:08 PM EST
Civil Twilight 6:20 AM EST 5:37 PM EST
Nautical Twilight 5:46 AM EST 6:11 PM EST
Astronomical Twilight 5:14 AM EST 6:44 PM EST
Moon 12:43 PM EST (2/9) 2:54 AM EST (2/9)
Length of Visible Light 11h 17m
Length of Day
10h 18m
Waxing Gibbous, 77% of the Moon is Illuminated
Feb 9
Waxing Gibbous
Feb 14
Full
Feb 22
Last Quarter
Mar 1
New
Mar 8
First Quarter

Hourly Weather History & Observations

Time (EST) Temp. Windchill Dew Point Humidity Pressure Visibility Wind Dir Wind Speed Gust Speed Precip Events Conditions
12:54 AM 25.0 °F 17.1 °F 3.0 °F 39% 30.14 in 10.0 mi North 6.9 mph - N/A   Overcast
1:54 AM 24.1 °F 17.0 °F 5.0 °F 44% 30.15 in 10.0 mi North 5.8 mph - N/A   Overcast
2:54 AM 23.0 °F 14.7 °F 3.9 °F 44% 30.16 in 10.0 mi North 6.9 mph - N/A   Overcast
3:54 AM 23.0 °F 14.7 °F 5.0 °F 46% 30.16 in 10.0 mi NNW 6.9 mph - N/A   Overcast
4:54 AM 21.9 °F 11.7 °F 8.1 °F 55% 30.16 in 10.0 mi NNE 9.2 mph - N/A   Overcast
5:54 AM 21.0 °F 12.4 °F 8.1 °F 57% 30.15 in 10.0 mi North 6.9 mph - N/A   Overcast
6:54 AM 19.9 °F 11.1 °F 8.1 °F 60% 30.17 in 3.0 mi North 6.9 mph - 0.00 in Snow Light Snow
7:54 AM 19.9 °F 10.1 °F 10.0 °F 65% 30.19 in 4.0 mi North 8.1 mph - 0.00 in Snow Light Snow
8:54 AM 21.0 °F 9.9 °F 9.0 °F 60% 30.19 in 8.0 mi North 10.4 mph - 0.00 in Snow Light Snow
9:00 AM 21.0 °F 10.6 °F 9.0 °F 60% 30.18 in 9.0 mi North 9.2 mph - 0.00 in   Mostly Cloudy
9:54 AM 21.9 °F 11.7 °F 8.1 °F 55% 30.18 in 10.0 mi NNE 9.2 mph - 0.00 in   Mostly Cloudy
10:54 AM 24.1 °F 19.7 °F 8.1 °F 51% 30.16 in 10.0 mi NNE 3.5 mph - N/A   Clear
11:54 AM 26.1 °F 21.9 °F 9.0 °F 49% 30.14 in 10.0 mi NE 3.5 mph - N/A   Mostly Cloudy
12:54 PM 28.0 °F - 10.0 °F 47% 30.09 in 10.0 mi Calm Calm - N/A   Mostly Cloudy
1:54 PM 28.0 °F - 10.0 °F 47% 30.08 in 10.0 mi Calm Calm - N/A   Clear
2:54 PM 30.0 °F 26.5 °F 10.9 °F 45% 30.06 in 10.0 mi East 3.5 mph - N/A   Overcast
3:54 PM 28.0 °F 20.8 °F 14.0 °F 56% 30.04 in 10.0 mi ESE 6.9 mph - N/A   Overcast
4:54 PM 28.0 °F 22.8 °F 15.1 °F 58% 30.04 in 10.0 mi ESE 4.6 mph - N/A   Overcast
5:54 PM 26.1 °F - 19.0 °F 75% 30.06 in 2.5 mi Calm Calm - 0.00 in Snow Light Snow
5:59 PM 26.1 °F - 19.0 °F 75% 30.05 in 1.8 mi Calm Calm - 0.00 in Snow Light Snow
6:22 PM 26.1 °F 21.9 °F 19.9 °F 78% 30.05 in 2.0 mi SE 3.5 mph - 0.00 in Snow Light Snow
6:54 PM 25.0 °F 20.7 °F 19.9 °F 81% 30.05 in 2.5 mi East 3.5 mph - 0.00 in Snow Light Snow
7:12 PM 25.0 °F - 21.0 °F 85% 30.03 in 2.5 mi Calm Calm - 0.00 in Snow Light Snow
7:22 PM 25.0 °F - 21.0 °F 85% 30.03 in 2.5 mi Calm Calm - 0.00 in Snow Light Snow
7:30 PM 25.0 °F - 21.0 °F 85% 30.02 in 3.0 mi Calm Calm - 0.00 in Snow Light Snow
7:54 PM 25.0 °F - 21.0 °F 85% 30.01 in 3.0 mi Calm Calm - 0.00 in Snow Light Snow
7:57 PM 25.0 °F - 21.0 °F 85% 30.01 in 2.5 mi Calm Calm - 0.00 in Snow Light Snow
8:15 PM 25.0 °F - 19.9 °F 81% 30.00 in 3.0 mi Calm Calm - 0.00 in Snow Light Snow
8:37 PM 25.0 °F - 21.0 °F 85% 29.99 in 3.0 mi Calm Calm - 0.00 in Snow Light Snow
8:54 PM 25.0 °F - 21.0 °F 85% 30.00 in 3.0 mi Calm Calm - 0.00 in Snow Light Snow
9:01 PM 25.0 °F - 21.0 °F 85% 29.99 in 4.0 mi Calm Calm - 0.00 in Snow Light Snow
9:22 PM 25.0 °F - 21.0 °F 85% 29.99 in 2.5 mi Calm Calm - 0.00 in Snow Light Snow
9:35 PM 25.0 °F - 19.9 °F 81% 29.98 in 3.0 mi Calm Calm - 0.00 in Snow Light Snow
9:46 PM 24.1 °F - 19.9 °F 84% 29.98 in 2.5 mi Calm Calm - 0.00 in Snow Light Snow
9:54 PM 25.0 °F - 19.9 °F 81% 29.98 in 3.0 mi Calm Calm - 0.00 in Snow Light Snow
10:54 PM 24.1 °F - 21.0 °F 88% 29.97 in 2.5 mi Calm Calm - 0.00 in Snow Light Snow
11:12 PM 24.1 °F - 19.9 °F 84% 29.96 in 1.8 mi Calm Calm - 0.00 in Snow Light Snow
11:32 PM 25.0 °F - 21.0 °F 85% 29.96 in 1.0 mi Calm Calm - 0.01 in Snow Light Snow
11:41 PM 25.0 °F - 21.9 °F 88% 29.96 in 0.8 mi Calm Calm - 0.02 in Snow Light Snow
11:54 PM 25.0 °F 18.1 °F 21.9 °F 88% 29.96 in 1.0 mi Variable 5.8 mph - 0.02 in Snow Light Snow